054  
ASUS41 KOKX 270208  
RWROKX  
 
REGIONAL WEATHER ROUNDUP  
NATIONAL WEATHER SERVICE NEW YORK NY  
1000 PM EDT SUN MAR 26 2017  
 
NOTE: "FAIR" INDICATES FEW OR NO CLOUDS BELOW 12,000 FEET WITH NO  
SIGNIFICANT WEATHER AND/OR S TO VISIBILITY
.  
 
NYZ071-072-176-178-NJZ106-104-270300-  
NEW YORK CITY METRO AREA  
 
CITY SKY/WX TMP DP RH WIND PRES REMARKS
 
CENTRAL PARK CLOUDY 39 38 96 CALM 30.37F FOG  
WALL ST HELIPT CLOUDY 41 39 93 NE14 30.35F  
LAGUARDIA APRT DRIZZLE 41 37 86 NE14 30.35F FOG  
KENNEDY INTL CLOUDY 40 39 97 E12 30.35F FOG WCI 33  
BREEZY POINT N/A 37 N/A N/A E13G21 N/A WCI 29  
NEWARK/LIBERTY DRIZZLE 41 38 89 E9 30.34F FOG  
TETERBORO CLOUDY 40 38 93 NE6 30.34F FOG  

 
 
NYZ177-179-078>081-270300-  
LONG ISLAND NEW YORK  
 
CITY SKY/WX TMP DP RH WIND PRES REMARKS
 
JONES BEACH N/A 39 N/A N/A E17 N/A WCI 30  
MATINECOCK PT N/A 37 N/A N/A E17 N/A WCI 28  
FARMINGDALE CLOUDY 39 38 96 E9 30.36F FOG WCI 33  
MACARTHUR/ISP DRIZZLE 38 38 100 E10 30.36R FOG WCI 31  
SHIRLEY CLOUDY 38 37 97 VRB3 30.38R FOG  
WESTHAMPTON CLOUDY 38 35 89 E10G17 30.38F FOG WCI 31  
EAST HAMPTON CLOUDY 37 35 92 E9G21 30.37F FOG WCI 30  
MONTAUK N/A 39 33 79 E9G16 30.39F WCI 33  

 
 
NYZ052-065-067-270300-  
HUDSON VALLEY  
 
CITY SKY/WX TMP DP RH WIND PRES REMARKS
 
WHITE PLAINS LGT RAIN 36 35 96 E8 30.34F VSB 1 WCI 30  
NEWBURGH CLOUDY 37 36 93 E8 30.35F WCI 31  
MONTGOMERY CLOUDY 38 34 85 E5 30.34F WCI 34  
POUGHKEEPSIE CLOUDY 37 31 78 SE9 30.35F WCI 30  
ALBANY CLOUDY 37 30 75 S10 30.35S WCI 30  

 
 
NJZ001-105-106-008-010-013-015-019>022-104-270300-  
NEW JERSEY  
 
CITY SKY/WX TMP DP RH WIND PRES REMARKS
 
NEWARK/LIBERTY DRIZZLE 41 38 89 E9 30.34F FOG  
TETERBORO CLOUDY 40 38 93 NE6 30.34F FOG  
CALDWELL CLOUDY 39 37 92 E8 30.35F FOG WCI 33  
SOMERVILLE CLOUDY 40 38 93 E5 30.32S  
LINDEN CLOUDY 40 37 90 SE10 30.35F FOG WCI 34  
SUSSEX CLOUDY 38 35 89 E3 30.33S  
ANDOVER N/A 37 34 89 CALM 30.32S  
TRENTON CLOUDY 40 39 97 E8 30.32R FOG WCI 34  
MILLVILLE CLOUDY 43 43 100 E9 30.27F FOG  
ATLANTIC CITY CLOUDY 43 41 93 E12 30.30F FOG  
WRIGHTSTOWN CLOUDY 40 39 95 NE9 30.29F FOG WCI 34  
TOMS RIVER LGT RAIN 41 40 96 NE9 30.33F FOG  
BELMAR LGT RAIN 40 39 97 E13 30.33F FOG WCI 32  

 
 
PAZ047>061-062-071-270300-  
EASTERN PENNSYLVANIA  
 
CITY SKY/WX TMP DP RH WIND PRES REMARKS
 
PHILADELPHIA CLOUDY 41 39 93 E13 30.31S FOG  
ALLENTOWN CLOUDY 40 36 86 E10 30.32R FOG WCI 33  
SCRANTON CLOUDY 39 35 86 E5 30.25S  

 
 
CTZ002-004>006-009-010-012-RIZ004-006-007-MAZ004-011-015-270300-  
SOUTHERN NEW ENGLAND  
IN CT  
 
CITY SKY/WX TMP DP RH WIND PRES REMARKS
 
BRADLEY INTL CLOUDY 38 30 73 SE5 30.40S WCI 34  
HARTFORD CLOUDY 39 29 67 CALM 30.40S  
DANBURY CLOUDY 36 33 89 E9 30.37F WCI 29  
WTRBURY/OXFORD CLOUDY 36 27 69 E5 30.37F WCI 32  
BRIDGEPORT CLOUDY 39 34 82 E13 30.39S WCI 31  
MERIDEN CLOUDY 39 30 70 CALM 30.40R  
NEW HAVEN CLOUDY 38 32 79 E9 30.39S WCI 31  
CHESTER NOT AVBL  
GROTON CLOUDY 39 31 72 E13 30.38F WCI 31  
WILIMANTIC CLOUDY 39 29 67 E3 30.40F  
 
IN RI  
 
CITY SKY/WX TMP DP RH WIND PRES REMARKS
 
PROVIDENCE CLOUDY 38 28 67 E7 30.41F WCI 33  
BLOCK ISLAND CLOUDY 38 33 82 E12 30.39F WCI 30  
WESTERLY CLOUDY 39 32 76 E10 30.40F WCI 32  
IN MA  
 
CITY SKY/WX TMP DP RH WIND PRES REMARKS
 
BOSTON LGT RAIN 37 31 78 SE13 30.44F WCI 29  
WORCESTER CLOUDY 33 26 75 E7 30.37F WCI 27  
WESTFIELD CLOUDY 37 31 78 S3 30.39S  
PROVINCETOWN CLOUDY 38 29 70 SE8 30.44F WCI 32  
NANTUCKET LGT RAIN 37 31 78 E9 30.42F WCI 30  

 
 
ANZ330-335-338-340-345-350-353-355-270300-  
COASTAL MARINE OBSERVATIONS  
 
 
STATION/POSITION TIME SKY/WX TEMP WIND PRES VSBY WAVE
 
AIR SEA DIR/SP/G HT/PER  
(UTC) (F) (DEG/KT/KT) (MB) (MI) (FT/S)  
NY HARB ENTRANCE 0050 40 42 70/ 16/ 19 1027.4 5/ 7  
20 S FIRE ISLAND 0150 41 40 80/ 17/ 19 1026.3 7/ 7  
GREAT SOUTH BAY NOT AVBL  
23 SSW MONTAUK P 0150 39 43 1028.1 6/ 6  
15 E BARNEGAT LI 0130 43 N/A 7/ 7  
HUDSON CANYON 0050 47 44 100/ 16/ 19 1025.8 7/ 7  
KINGS POINT 0130 38 39 1028.1  
EXECUTION ROCKS NOT AVBL  
CENTRAL LI SOUND 0115 39 100/ 16/ 19 N/A 3/ 4  
EASTERN LI SOUND NOT AVBL  
ROBBINS REEF 0130 40 80/ 13/ 15 1027.6  

 
 
>>>>>>>>>>>>>>>>>>>>>>>>>>>> KEY <<<<<<<<<<<<<<<<<<<<<<<<<<<  
> <  
> SKY/WX - SKY CONDITION/PRESENT WEATHER <  
> TMP - TEMPERATURE IN FAHRENHEIT <  
> DP - DEW POINT IN FAHRENHEIT <  
> RH - RELATIVE HUMIDITY IN PERCENT <  
> WIND - DIRECTION (FROM) AND SPEED IN MPH <  
> PRES - MEAN SEA LEVEL PRESSURE (INCHES OF HG) <  
> WCI - WIND CHILL INDEX <  
> VSB - VISIBILITY IN MILES <  
> HX - HEAT INDEX <  
> TC - TEMPERATURE IN CELSIUS <  
> VRB - VARIABLE WIND DIRECTION <  
> <  
>>>>>>>>>>>>>>>>>>>>>>>>>>>> KEY <<<<<<<<<<<<<<<<<<<<<<<<<<<  
 
 
CLICK HERE TO GO TO PREVIOUS BULLETINS.

The Nexlab NY Page
The Nexlab NJ Page
The Nexlab CT Page Main Text Page